PNYC

 

 

Pacific Northwest Yearling Challenge - Trailer Toss 3Groups SW

Station: GRAVEL PILE - T Race

Distance: 15 Miles    

Release: 02-Apr-2024 09:00

Weather Release: Clear    Arrival: Clear

Wind at Release: NW 5-8     Wind at Arrival: NW 5-8

Temp at Release: 53°    Temp at Arrival: °

Lofts: 106

Birds: 370

Clocked: 366

Good Luck to Everyone!
Drops Pos Breeder Pigeon Name Color Sex Team Ent Arrival Speed To Win Elg PdSilverGold
1 Jolly Roger - WA 8875-AU23-LKC BC H 1 1 09:24:38.65 1071.2474 00:00:00 Yes
2 Joe Zarachowicz - MD 0418-IF23-CCC BB H 1 1 09:24:48.32 1064.2801 00:00:10 Yes
3 Montejano's Loft - TN 3477-IF23-ORPC BB H 2 1 09:24:48.40 1064.2229 00:00:10 Yes
4 Flip A Bean And Two Crackers - CA 3366-AU23-SMR 2236x604 BC C 1 1 09:24:48.71 1064.0084 00:00:10 Yes
5 Bill and Danny - UT 1657-IF23-FSC BC C 2 1 09:24:49.09 1063.7369 00:00:10 Yes
6 Paul Yahiku - OR 2312-AU23-YAHI Nl 252 X 21071 BC C 1 1 09:24:50.24 1062.9160 00:00:12 Yes
7 Barry & Shawnie - MI 0186-IF23-JRC BKWF C 4 1 09:24:51.92 1061.7191 00:00:13 Yes
8 Racing Pigeon Mall - WA 0344-AU23-RPM BC C 1 1 09:24:52.60 1061.2283 00:00:14 Yes
9 Double J G Loft - ID 0619-AU23-IDA BB H 2 1 09:24:54.22 1060.0849 00:00:16 Yes
10 De La O-Fernandez - CA 3307-AU23-SWI BB H 1 1 09:24:54.69 1059.7515 00:00:16 Yes
11 Lofty One - SC 46193-AU23-ARPU BC C 1 1 09:24:58.12 1057.3252 00:00:19 Yes
12 Spoiled Sa Amo - CA 50269-AU23-JEDD BB C 1 1 09:24:58.27 1057.2193 00:00:20 Yes
13 RDP Loft - IL 1272-AU23-EHC BBWF C 1 1 09:24:58.97 1056.7186 00:00:20 Yes
14 Joe Zarachowicz - MD 0434-IF23-CCC BB C 1 2 09:25:00.75 1055.4723 00:00:22 Yes
15 FORMULA23 - FL 2357-AU23-AUDI 2101 Foys X 291 Gswc BC H 1 1 09:25:00.91 1055.3597 00:00:22 Yes
16 Trapper Bob Loft - MO 0549-AU23-TRAP BC H 1 1 09:25:02.43 1054.2850 00:00:24 Yes
17 Refried Dreams - AZ 0685-AU23-PSC Dutch / 318 BBWF C 1 1 09:25:02.83 1054.0114 00:00:24 Yes
18 El Vicho - IN 2506-AU23-ELVI BCWF H 1 1 09:25:03.29 1053.6819 00:00:25 Yes
19 De La O-Fernandez - CA 3308-AU23-SWI BB C 2 2 09:25:03.98 1053.1985 00:00:25 Yes
20 High Desert Yearling Classic - ID 0699-AU23-KVL BB C 1 1 09:25:05.08 1052.4358 00:00:26 Yes
21 Joe Zarachowicz - MD 0484-IF23-CCC BB C 1 3 09:25:07.50 1050.7393 00:00:29 Yes
22 Lcc Loft - TN 1073-AU23-NASH BB C 1 1 09:25:09.52 1049.3332 00:00:31 Yes
23 Keyways - ID 0384-AU23-KEYS 9x565 BB H 1 1 09:25:10.70 1048.5206 00:00:32 Yes
24 Mari Loft - MA 0493-IF23-BRA BB H 1 1 09:25:11.08 1048.2569 00:00:32 Yes
25 John V Partridge - CA 3563-AU23-PASO Key West Cookie BB H 1 1 09:25:11.33 1048.0765 00:00:33 Yes
26 Radd - OK 1319-AU23-CBS 153 BCWF C 1 1 09:25:12.41 1047.3281 00:00:34 Yes
27 Shirey Loft - PA 0362-IF23-HBG BC H 1 1 09:25:14.25 1046.0624 00:00:36 Yes
28 Double J G Loft - ID 0623-AU23-IDA BBWF C 1 2 09:25:15.64 1045.1031 00:00:37 Yes
29 Lou Coletta - CA 0083-AU23-LCOL BB C 1 1 09:25:17.25 1043.9941 00:00:39 Yes
30 RDP Loft - IL 1273-AU23-EHC BB H 1 2 09:25:19.64 1042.3521 00:00:41 Yes
31 Oakland-Rosa Loft - CA 23111-AU23-OAK BB C 1 1 09:25:21.04 1041.3927 00:00:42 Yes
32 Bill and Danny - UT 1651-IF23-FSC BC C 2 2 09:25:21.13 1041.3311 00:00:42 Yes
33 Spoiled Sa Amo - CA 11291-AU23-VITA DKCK C 1 2 09:25:21.61 1041.0026 00:00:43 Yes
34 De La O-Fernandez - CA 3330-AU23-SWI BB C 1 3 09:25:22.67 1040.2779 00:00:44 Yes
35 VMBY Loft - CA 0043-AU23-VMBY BC C 1 1 09:25:24.38 1039.1042 00:00:46 Yes
36 De La O-Fernandez - CA 3324-AU23-SWI VEL C 1 4 09:25:24.97 1038.7090 00:00:46 Yes
37 Dashing Bandit - TX 23373-AU23-NBC BBT H 1 1 09:25:26.49 1037.6679 00:00:48 Yes
38 Hollywood Lou Loft - FL 1060-AU23-HOLL BB C 1 1 09:25:27.02 1037.3145 00:00:48 Yes
39 Radd - OK 2928-AU23-ARPU 1527/41232 Kr 3 BB C 1 2 09:25:27.26 1037.1515 00:00:49 Yes
40 TACOMA CLUB SYNDICATE - WA 0225-AU23-ARAM SWEET HEART ♥️ BC C 1 1 09:25:27.57 1036.9342 00:00:49 Yes
41 Bill and Danny - UT 1664-IF23-FSC BC C 2 3 09:25:28.20 1036.5135 00:00:50 Yes
42 Maricutu Family Loft - WA 0383-AU23-SKI BCWF C 1 1 09:25:29.55 1035.5919 00:00:51 Yes
43 Paul Meyer - WA 3346-AU23-TCW LIFE IKON HOFKEN BC H 1 1 09:25:29.97 1035.3077 00:00:51 Yes
44 Golden Loft - WA 0110-AU23-RIXW BB H 1 1 09:25:30.11 1035.2197 00:00:51 Yes
45 Honey Farm Loft - TN 3650-IF23-ORPC BB C 1 1 09:25:30.49 1034.9559 00:00:52 Yes
46 Jd And Em - CA 72292-AU23-ARPU BB C 1 1 09:25:36.48 1030.9211 00:00:58 Yes
47 Stealth Loft - ID 23846-AU23-RMR BB H 1 1 09:25:37.42 1030.2908 00:00:59 Yes
48 Double J G Loft - ID 0622-AU23-IDA BBWF C 1 3 09:25:37.66 1030.1367 00:00:59 Yes
49 Tnt Racing Loft - UT 0144-AU23-UCA NBPT BC C 1 1 09:25:40.37 1028.3177 00:01:02 Yes
50 AFL - GA 0289-IF23-AFL BB C 1 1 09:25:40.84 1028.0107 00:01:02 Yes
51 AFL - GA 0156-IF23-AFL BB C 1 2 09:25:42.24 1027.0775 00:01:04 Yes
52 Victoria Falls World Challenge - ZW 14066-AU23-VITA BB C 1 1 09:25:42.97 1026.5916 00:01:04 Yes
53 Devore Loft - GA 6684-AU23-DEVO Babel CHOC C 2 1 09:25:44.86 1025.3356 00:01:06 Yes
54 G S P Loft - Partridge - CA 0184-AU23-GSP BC H 1 1 09:25:46.01 1024.5729 00:01:07 Yes
55 Refried Dreams - AZ 0694-AU23-PSC Apple Sauce / Andy BC H 1 2 09:25:50.81 1021.4017 00:01:12 Yes
56 Jim Hewitt - ID 0538-AU23-HEWI BB C 1 1 09:25:57.90 1016.7533 00:01:19 Yes
57 Charlie Barbiere - NJ 1096-IF23-BSC BBSP C 1 1 09:26:01.74 1014.2533 00:01:23 Yes
58 House Of Paine - CA 3644-AU23-GSF HOP720xHOP47928 BB C 1 1 09:26:02.11 1014.0131 00:01:23 Yes
59 Kirschner’s Cafe - OH 0022-AU23-BFC GRIZ C 1 1 09:26:03.06 1013.3968 00:01:24 Yes
60 Rueter Family Loft - OR 2144-AU23-CORP BB H 1 1 09:26:04.49 1012.4640 00:01:26 Yes
61 Maestas Family Loft - NM 23530-AU23-NMRP BC C 1 1 09:26:06.47 1011.1843 00:01:28 Yes
62 Geos Collection - CA 0028-IF23-GEO BC C 2 1 09:26:09.01 1009.5538 00:01:30 Yes
63 De La O-Fernandez - CA 3310-AU23-SWI BB C 2 5 09:26:11.52 1007.9349 00:01:33 Yes
64 Honey Farm Loft - TN 3649-IF23-ORPC BB C 1 2 09:26:15.79 1005.2101 00:01:37 Yes
65 Devore Loft - GA 6689-AU23-DEVO Fudge CHOC H 1 2 09:26:17.45 1004.1459 00:01:39 Yes
66 Double J G Loft - ID 0617-AU23-IDA BC H 1 4 09:26:24.15 999.9053 00:01:45 Yes
67 Radd - OK 1320-AU23-CBS 153 BC C 1 3 09:26:25.54 999.0224 00:01:47 Yes
68 Oakland-Rosa Loft - CA 23107-AU23-OAK BB C 1 2 09:26:28.33 997.2676 00:01:50 Yes
69 Redtex - TX 0043-AU23-REDT lioness BBWF H 1 1 09:26:32.41 994.7125 00:01:54 Yes
70 Geos Collection - CA 0032-IF23-GEO BB C 1 2 09:26:45.20 986.7929 00:02:07 Yes
71 VMBY Loft - CA 0071-AU23-VMBY BB C 1 2 09:26:48.15 984.9827 00:02:10 Yes
72 Rueter Family Loft - OR 2140-AU23-CORP BB C 1 2 09:27:04.73 974.9312 00:02:26 Yes
73 FOB Greek - RI 0282-AU23-RI SKYKING (131 X 1532) BC C 1 1 09:27:54.70 945.8410 00:03:16 Yes
74 Baptista - IL 41794-AU23-JEDD BB C 1 1 09:28:08.00 938.3886 00:03:29 Yes
75 Bill and Danny - UT 1452-AU23-UVI 103/21573 BB C 1 4 09:28:13.18 935.5178 00:03:35 Yes
76 Olson Family Loft - MN 2382-AU23-OFL BBWF C 1 1 09:28:48.73 916.2796 00:04:10 Yes
77 Pelican Loft - ID 2358-AU23-PELI BC C 1 1 09:28:52.06 914.5180 00:04:13 Yes
78 FAmPFA - IL 0734-AU23-VITA BC C 1 1 09:29:11.81 904.2076 00:04:33 Yes
79 J S R Loft - UT 0014-AU23-JSR BCWF C 2 1 09:33:44.13 782.5584 00:09:05 Yes
80 Super Sport Loft - FL 0449-AU23-SS 309 x 119669 BCWF H 1 1 09:33:45.73 781.9403 00:09:07 Yes
81 Mile High - CO 3059-AU23-VITA BC C 1 1 09:33:47.68 781.1884 00:09:09 Yes
82 Paul Yahiku - OR 2319-AU23-YAHI 19088 X 21085 BB H 3 2 09:33:49.57 780.4570 00:09:11 Yes
83 Postlofts - ID 3716-AU23-GEM BC C 1 1 09:33:50.03 780.2840 00:09:11 Yes
84 Huan Loft - NC 3083-AU23-RDU BB H 2 1 09:33:50.26 780.1956 00:09:12 Yes
85 Pelican Loft - ID 2359-AU23-PELI BCWF C 1 2 09:33:51.19 779.8384 00:09:13 Yes
86 Postlofts - ID 3717-AU23-GEM BBWF H 1 2 09:33:51.27 779.8039 00:09:13 Yes
87 Jim Hewitt - ID 0544-AU23-HEWI BB C 1 2 09:33:52.24 779.4355 00:09:14 Yes
88 House Of Paine - CA 3646-AU23-GSF HOP241xHOP418 BB H 1 2 09:33:52.42 779.3626 00:09:14 Yes
89 Dave Harrett - WA 2688-AU23-VITA BB C 1 1 09:33:52.96 779.1595 00:09:14 Yes
90 Rock Creek Classic - ID 0818-AU23-208 1693/81200 BB H 1 1 09:33:54.02 778.7534 00:09:15 Yes
91 Lofty One - SC 46195-AU23-ARPU BC H 1 2 09:33:54.09 778.7266 00:09:15 Yes
92 Lindbergh Flyers - MO 3857-AU23-NERP BC C 1 1 09:33:54.59 778.5314 00:09:16 Yes
93 Xfactord - OK 2934-AU23-ARPU Xpress BC C 1 1 09:33:55.48 778.1910 00:09:17 Yes
94 Racing Pigeon Mall - WA 0345-AU23-RPM BC H 1 2 09:33:56.41 777.8356 00:09:18 Yes
95 Devore Loft - GA 6657-AU23-DEVO Leprechaun BB C 1 3 09:33:56.65 777.7478 00:09:18 Yes
96 Spoiled Sa Amo - CA 50266-AU23-JEDD BB C 2 3 09:33:56.82 777.6829 00:09:18 Yes
97 Bill and Danny - UT 1662-IF23-FSC BC C 2 5 09:33:58.10 777.1944 00:09:19 Yes
98 Amer Loft - GA 0235-IF23-AFL BB H 1 1 09:33:59.03 776.8400 00:09:20 Yes
99 Hi-Cal Connection - CA 0819-AU23-SD BC H 1 1 09:33:59.82 776.5391 00:09:21 Yes
100 FAmPFA - IL 0733-AU23-VITA BC C 1 2 09:34:00.98 776.0940 00:09:22 Yes

There are 367 bird records

Note: These Race Results are unofficial and subject to change until verified by the Race Committee and declared final.